Location: Heisede
(52.2582°N, 9.8523°E)
Time: 17:58:44
(UTC+00:00)

Cosmos 2074 Rocket - Visible Passes

Search period start: 11 April 2026 00:00
Search period end: 21 April 2026 00:00
Orbit: 967 x 985 km, 82.9° (Epoch: 11 April)

Date Brightness Start Highest point End Pass type
(mag) Time Alt. Az. Time Alt. Az. Time Alt. Az.
11 Apr 6.9 03:58:14 10° NNE 04:02:22 18° NE 04:06:28 10° E visible
11 Apr 4.3 19:18:31 10° SSW 19:24:45 76° WNW 19:31:03 10° N visible
11 Apr 6.7 21:07:16 10° W 21:11:20 18° NW 21:15:24 10° NNW visible
12 Apr 5.1 19:44:24 10° SW 19:50:23 47° WNW 19:56:27 10° N visible
12 Apr 7.0 21:35:44 10° WNW 21:37:35 11° NW 21:39:27 10° NNW visible
13 Apr 6.0 20:10:48 10° SW 20:16:13 30° WNW 20:21:41 10° N visible
14 Apr 7.1 03:29:32 10° NNE 03:33:15 16° NE 03:36:58 10° E visible
14 Apr 4.2 18:49:34 10° S 18:55:49 85° WNW 19:02:07 10° N visible
14 Apr 6.7 20:37:49 10° WSW 20:42:14 20° WNW 20:46:41 10° NNW visible
15 Apr 4.9 19:15:20 10° SSW 19:21:24 53° WNW 19:27:34 10° N visible
15 Apr 7.0 21:05:47 10° WNW 21:08:26 13° NW 21:11:06 10° NNW visible
16 Apr 5.9 19:41:35 10° SW 19:47:11 34° WNW 19:52:51 10° N visible
17 Apr 7.3 03:00:54 10° NNE 03:04:08 14° NE 03:07:22 10° E visible
17 Apr 6.6 20:08:25 10° WSW 20:13:09 22° WNW 20:17:55 10° N visible
18 Apr 6.9 03:25:32 10° N 03:30:18 22° ENE 03:35:03 10° ESE visible
18 Apr 7.0 20:36:04 10° W 20:39:18 14° NW 20:42:34 10° NNW visible
19 Apr 5.7 19:12:24 10° SW 19:18:10 38° WNW 19:24:00 10° N visible
20 Apr 7.5 02:32:21 10° NNE 02:35:00 13° NE 02:37:39 10° ENE visible
20 Apr 6.6 19:39:04 10° WSW 19:44:04 25° WNW 19:49:08 10° N visible
